EW1337 Weather Reports


Display with metric or nautical units.
time (UTC)temp
F
wind
direction
speed
MPH
gust
MPH
rain 1hr
in
rain 24hr
in
rain mn
in
humidity
%
barometer
mb
20260503211006 64 327 2.0 15.0 0.00 0.00 0.00 27 1016.2
20260503210505 64 358 2.0 10.0 0.00 0.00 0.00 27 1016.1
20260503210008 65 0 0.0 10.0 0.00 0.00 0.00 27 1016.1
20260503205505 65 214 5.0 15.0 0.00 0.00 0.00 27 1016.1
20260503205005 64 234 7.0 15.0 0.00 0.00 0.00 28 1016.2
20260503204506 64 293 2.0 11.0 0.00 0.00 0.00 28 1016.2
20260503203505 64 0 0.0 11.0 0.00 0.00 0.00 28 1016.2
20260503203006 65 29 5.0 11.0 0.00 0.00 0.00 27 1016.3
20260503202506 65 347 5.0 11.0 0.00 0.00 0.00 28 1016.3
20260503201506 65 192 5.0 11.0 0.00 0.00 0.00 29 1016.4
20260503201006 65 232 5.0 11.0 0.00 0.00 0.00 28 1016.3
20260503200505 65 0 0.0 10.0 0.00 0.00 0.00 28 1016.3
20260503195505 65 0 0.0 15.0 0.00 0.00 0.00 28 1016.3
20260503195006 65 310 7.0 15.0 0.00 0.00 0.00 28 1016.3
20260503194504 65 0 0.0 10.0 0.00 0.00 0.00 29 1016.5
20260503194006 65 323 2.0 10.0 0.00 0.00 0.00 28 1016.6
20260503193006 64 329 5.0 10.0 0.00 0.01 0.00 30 1016.7
20260503192505 64 335 2.0 13.0 0.00 0.01 0.00 29 1016.8
20260503192006 64 8 2.0 13.0 0.00 0.01 0.00 29 1016.8
20260503191506 64 348 5.0 13.0 0.00 0.01 0.00 29 1016.9
20260503191006 64 323 5.0 10.0 0.00 0.01 0.00 29 1016.9
20260503190505 64 287 2.0 13.0 0.00 0.01 0.00 29 1017.2
20260503190010 64 302 5.0 17.0 0.00 0.01 0.00 30 1016.9
20260503185506 64 317 5.0 17.0 0.00 0.01 0.00 30 1017.1
20260503184506 64 68 5.0 13.0 0.00 0.01 0.00 30 1017.1
20260503184005 64 354 2.0 13.0 0.00 0.01 0.00 31 1017.3
20260503183505 63 0 0.0 15.0 0.00 0.01 0.00 31 1017.3
20260503183006 63 324 7.0 15.0 0.00 0.01 0.00 31 1017.3
20260503182505 63 318 2.0 15.0 0.00 0.01 0.00 31 1017.4
20260503182006 63 314 2.0 15.0 0.00 0.01 0.00 31 1017.1
20260503181505 63 308 11.0 15.0 0.00 0.01 0.00 30 1017.2
20260503181005 63 322 7.0 15.0 0.00 0.01 0.00 31 1017.4
20260503180505 63 347 2.0 13.0 0.00 0.01 0.00 32 1017.3
20260503180009 63 4 2.0 15.0 0.00 0.01 0.00 32 1017.4
20260503175506 63 340 7.0 15.0 0.00 0.01 0.00 31 1017.4
20260503175005 63 300 9.0 15.0 0.00 0.01 0.00 32 1017.5
20260503174505 63 0 0.0 17.0 0.00 0.01 0.00 31 1017.3
20260503174006 63 286 7.0 17.0 0.00 0.01 0.00 32 1017.5
20260503173505 63 283 9.0 17.0 0.00 0.02 0.00 34 1017.5
20260503173006 62 312 5.0 15.0 0.00 0.02 0.00 34 1017.7
20260503172505 62 319 5.0 15.0 0.00 0.02 0.00 33 1017.6
20260503172005 62 302 2.0 15.0 0.00 0.02 0.00 33 1017.7
20260503171505 62 340 5.0 19.0 0.00 0.05 0.00 32 1017.7
20260503171006 62 344 7.0 19.0 0.00 0.05 0.00 34 1017.7
20260503170506 62 294 7.0 19.0 0.00 0.05 0.00 34 1017.7
20260503131005 53 332 5.0 15.0 0.00 0.15 0.00 53 1017.5
20260503130505 53 330 9.0 13.0 0.00 0.15 0.00 55 1017.5
20260503110505 53 331 5.0 10.0 0.00 0.16 0.00 64 1016.1
20260503090505 50 16 2.0 8.0 0.00 0.16 0.00 83 1014.2
20260503081505 50 0 0.0 4.0 0.00 0.16 0.00 81 1013.8
20260503081005 50 0 0.0 4.0 0.00 0.16 0.00 81 1013.6
20260503080505 50 0 0.0 4.0 0.00 0.16 0.00 80 1013.4
20260503072505 51 0 0.0 0.0 0.00 0.16 0.00 76 1013.1
20260503072005 51 0 0.0 0.0 0.00 0.16 0.00 76 1013.0
20260503071505 51 0 0.0 2.0 0.00 0.16 0.00 75 1012.9
20260503055004 54 0 0.0 4.0 0.00 0.16 0.00 71 1012.2
20260503054505 54 0 0.0 4.0 0.00 0.16 0.00 71 1012.3
20260503053505 54 0 0.0 6.0 0.00 0.16 0.00 71 1012.5
20260503053005 54 0 0.0 6.0 0.00 0.16 0.00 71 1012.5
20260503052505 54 0 0.0 4.0 0.00 0.16 0.00 71 1012.4
20260503052004 54 0 0.0 4.0 0.00 0.16 0.00 71 1012.4
20260503051505 54 0 0.0 2.0 0.00 0.16 0.00 71 1012.3
20260503051005 54 0 0.0 2.0 0.00 0.16 0.00 71 1012.4
20260503050505 55 0 0.0 4.0 0.00 0.16 0.00 71 1012.5
20260503050008 55 0 0.0 4.0 0.00 0.16 0.00 71 1012.5
20260503045505 55 0 0.0 2.0 0.00 0.16 0.00 72 1012.5
20260503045005 55 0 0.0 0.0 0.00 0.16 0.00 73 1012.5
20260503044505 55 0 0.0 0.0 0.00 0.16 0.00 73 1012.6
20260503044005 55 0 0.0 0.0 0.00 0.16 0.00 73 1012.5
20260503043505 55 0 0.0 0.0 0.00 0.16 0.00 73 1012.5
20260503043005 55 0 0.0 0.0 0.00 0.16 0.00 73 1012.5
20260503042505 55 0 0.0 4.0 0.00 0.16 0.00 70 1012.5
20260503042005 55 0 0.0 4.0 0.00 0.16 0.00 69 1012.5
20260503041505 55 0 0.0 4.0 0.00 0.16 0.00 70 1012.4
20260503041005 55 0 0.0 4.0 0.00 0.16 0.00 72 1012.6
20260503040019 55 0 0.0 0.0 0.00 0.16 0.00 72 1012.5
20260503035505 55 0 0.0 0.0 0.00 0.16 0.16 72 1012.3
20260503035004 55 0 0.0 0.0 0.00 0.16 0.16 72 1012.4
20260503034504 55 0 0.0 0.0 0.00 0.16 0.16 71 1012.7
20260503034005 55 0 0.0 4.0 0.00 0.16 0.16 67 1012.6
20260503033504 55 0 0.0 4.0 0.00 0.16 0.16 66 1012.7
20260503033005 55 0 0.0 4.0 0.00 0.16 0.16 66 1012.5
20260503032004 55 0 0.0 6.0 0.00 0.16 0.16 66 1012.3
20260503031505 55 5 2.0 6.0 0.00 0.16 0.16 66 1012.3
20260503031005 55 6 2.0 4.0 0.00 0.16 0.16 67 1012.4
20260503030008 55 0 0.0 6.0 0.00 0.16 0.16 66 1012.3
20260503025505 55 0 0.0 4.0 0.00 0.16 0.16 67 1012.5
20260503024504 55 0 0.0 4.0 0.00 0.16 0.16 66 1012.7
20260503024005 55 0 0.0 6.0 0.00 0.16 0.16 66 1012.6
20260503023505 55 0 0.0 6.0 0.00 0.16 0.16 66 1012.5
20260503023005 55 0 0.0 6.0 0.00 0.16 0.16 66 1012.7
20260503022505 55 357 2.0 6.0 0.00 0.16 0.16 67 1012.5
20260503022005 55 0 0.0 6.0 0.00 0.16 0.16 67 1012.5
20260503021504 55 353 2.0 6.0 0.00 0.16 0.16 67 1012.5
20260503021005 55 5 2.0 8.0 0.00 0.16 0.16 67 1012.6
20260503020504 55 0 0.0 8.0 0.00 0.16 0.16 67 1012.4
20260503015505 55 0 0.0 8.0 0.00 0.16 0.16 67 1012.5
20260503014505 55 3 2.0 6.0 0.00 0.16 0.16 68 1012.2
20260503014004 55 3 2.0 6.0 0.00 0.16 0.16 69 1012.2
20260503013505 55 3 2.0 6.0 0.00 0.16 0.16 69 1012.1
20260503012005 55 5 2.0 6.0 0.00 0.16 0.16 71 1012.1
20260503011505 55 0 0.0 8.0 0.00 0.16 0.16 71 1012.3
20260503010505 55 0 0.0 4.0 0.00 0.16 0.16 72 1012.2
20260503010008 55 0 0.0 4.0 0.00 0.16 0.16 72 1012.3
20260503005504 55 0 0.0 4.0 0.00 0.16 0.16 72 1012.2
20260503004505 55 0 0.0 4.0 0.00 0.16 0.16 71 1012.0
20260503004004 55 0 0.0 4.0 0.00 0.16 0.16 70 1012.0
20260503003505 55 6 2.0 6.0 0.00 0.16 0.16 69 1011.8
20260503003005 55 0 0.0 8.0 0.00 0.16 0.16 69 1011.8
20260503002505 55 0 0.0 8.0 0.00 0.16 0.16 68 1011.8
20260503002005 55 5 5.0 6.0 0.00 0.16 0.16 68 1011.7
20260503001505 55 4 2.0 6.0 0.00 0.16 0.16 68 1011.5
20260503000504 55 356 2.0 8.0 0.00 0.16 0.16 68 1011.6
20260503000009 55 352 2.0 10.0 0.00 0.16 0.16 68 1011.5
20260502235505 55 356 2.0 10.0 0.00 0.16 0.16 69 1011.5
20260502234504 55 350 2.0 10.0 0.00 0.16 0.16 71 1011.3
20260502234005 55 5 5.0 10.0 0.00 0.16 0.16 73 1011.2
20260502233504 55 0 0.0 8.0 0.00 0.16 0.16 73 1011.2
20260502233006 55 333 2.0 8.0 0.00 0.16 0.16 73 1011.2
20260502232505 55 334 2.0 8.0 0.00 0.16 0.16 73 1011.5
20260502232005 55 355 5.0 8.0 0.00 0.16 0.16 73 1011.5
20260502231505 55 357 2.0 8.0 0.00 0.16 0.16 73 1011.5
20260502231005 55 357 2.0 8.0 0.00 0.16 0.16 73 1011.3
20260502230505 55 2 2.0 8.0 0.00 0.16 0.16 73 1011.3
20260502230008 55 355 5.0 10.0 0.00 0.16 0.16 74 1011.2
20260502225505 55 358 2.0 10.0 0.00 0.16 0.16 74 1011.2
20260502225005 55 3 5.0 8.0 0.00 0.16 0.16 75 1011.2
20260502224504 55 4 2.0 11.0 0.00 0.16 0.16 75 1011.3
20260502224005 55 4 5.0 11.0 0.00 0.16 0.16 75 1011.5
20260502223504 55 0 0.0 8.0 0.00 0.16 0.16 75 1011.5
20260502223005 55 3 2.0 10.0 0.00 0.16 0.16 75 1011.6
20260502222005 55 3 2.0 6.0 0.00 0.16 0.16 75 1011.7
20260502221504 55 3 2.0 8.0 0.00 0.16 0.16 75 1011.6
20260502221005 56 0 0.0 10.0 0.00 0.16 0.16 75 1011.7
20260502220504 56 0 0.0 10.0 0.00 0.16 0.16 74 1011.7
20260502215504 56 348 5.0 13.0 0.00 0.16 0.16 74 1011.7
20260502215005 56 354 5.0 13.0 0.00 0.16 0.16 74 1011.5
20260502214504 56 344 9.0 13.0 0.00 0.16 0.16 75 1011.5
20260502214005 56 330 7.0 11.0 0.00 0.16 0.16 76 1011.3
20260502213505 56 353 2.0 11.0 0.00 0.16 0.16 78 1011.1
20260502213005 56 354 5.0 10.0 0.00 0.16 0.16 78 1011.0
20260502212504 56 334 5.0 10.0 0.00 0.16 0.16 78 1011.0
20260502212005 56 333 5.0 10.0 0.00 0.16 0.16 79 1011.1